Location: ?????????
(38.5999°N, 22.7695°E)
Time: 10:14:03
(UTC+00:00)

Cosmos 2242 Rocket - Pass Details

Date: 23 May 2024
Orbit: 617 x 647 km, 82.5° (Epoch: 18 June)

Event Time Altitude Azimuth Distance (km) Brightness Sun altitude
Exits shadow 00:53:31 58° 241° (WSW) 730 3.5 -21.4°
Maximum altitude 00:54:02 64° 279° (W) 696 3.6 -21.3°
Drops below altitude 10° 00:58:29 10° 1° (N) 2,020 6.9 -20.8°
Sets 01:00:46 0° 4° (N) 2,937 7.9 -20.5°
